Regional Weather Roundup
Issued by NWS

Home | Current Version | Previous Version | Graphics & Text | Print | Product List | Glossary On
Versions: 1 2 3 4 5 6 7 8 9 10 11 12 13 14 15 16 17 18 19 20 21 22 23 24 25 26 27 28 29 30 31 32 33 34 35 36 37 38 39 40 41 42 43 44 45 46 47 48 49 50
000
ASUS43 KDTX 252001
RWRMI
MICHIGAN HOURLY REGIONAL WEATHER ROUNDUP
NATIONAL WEATHER SERVICE DETROIT/PONTIAC MI
300 PM EST SAT FEB 25 2017

NOTE: "FAIR" INDICATES FEW OR NO CLOUDS BELOW 12,000 FEET WITH NO
SIGNIFICANT WEATHER AND/OR OBSTRUCTION TO VISIBILITY.

MIZ047>049-052>055-059>063-066>070-074>076-081>083-252100-
SOUTHEAST LOWER MICHIGAN

CITY           SKY/WX    TMP DP  RH WIND       PRES   REMARKS
ADRIAN         CLOUDY    28  19  69 W17G29    29.77R WCI  16
ALMA           LGT SNOW  27  19  73 W14       29.70R WCI  15
ANN ARBOR      CLOUDY    30  19  63 W21       29.71R WCI  17
BAD AXE        CLOUDY    30  20  64 W20G30    29.61R WCI  18
CARO           CLOUDY    29  20  67 W16G30    29.64R WCI  18
DETROIT CITY   CLOUDY    32  19  58 W18G28    29.69R WCI  20
DETROIT        CLOUDY    33  19  56 W21G30    29.72R WCI  21
FLINT          CLOUDY    29  19  66 W20G30    29.68R WCI  16
GROSSE ILE     CLOUDY    33  19  58 W16G28    29.71R WCI  22
HILLSDALE      FLURRIES  27  19  74 W17G23    29.74R WCI  14
HOWELL         CLOUDY    29  19  67 W18G31    29.69R WCI  16

CITY           SKY/WX    TMP DP  RH WIND       PRES   REMARKS
JACKSON        LGT SNOW  27  19  72 W15G33    29.73R WCI  15
LAMBERTVILLE   CLOUDY    32  20  60 W21G29    29.76R WCI  20
LANSING        LGT SNOW  26  18  71 W24G31    29.73R WCI  11
LAPEER         CLOUDY    30  20  66 W18G26    29.65R WCI  18
MASON          LGT SNOW  27  20  74 W22G32    29.73R WCI  13
MONROE         CLOUDY    32  22  65 W22G31    29.73R WCI  19
MT. CLEMENS    CLOUDY    33  20  57 W17G28    29.65R WCI  22
PONTIAC        FLURRIES  30  18  60 W22G30    29.66R WCI  17
PORT HOPE        N/A     31  20  63 W13G29    29.57R WCI  21
PORT HURON     CLOUDY    32  21  64 W13G21    29.65R WCI  22
TRI CITIES     LGT SNOW  29  20  69 W23G30    29.66R WCI  15
MIDLAND        CLOUDY    29  17  61 W17G32    29.66R WCI  17
TROY           CLOUDY    32  17  52 W21G31    29.70R WCI  20
SAGINAW HB     CLOUDY    32  19  59 W23G30    29.66R WCI  19
$$
MIZ043>046-050>051-056>058-064>065-071>073-077>080-252100-
SOUTHWEST LOWER MICHIGAN

CITY           SKY/WX    TMP DP  RH WIND       PRES   REMARKS
BATTLE CREEK   LGT SNOW  25  20  81 W14G30    29.77R WCI  13
BENTON HARBOR  FLURRIES  26  16  65 W17G31    29.85R WCI  13
BIG RAPIDS     LGT SNOW  24  18  77 W16G22    29.69R WCI  11
COLDWATER      LGT SNOW  26  21  80 W16G28    29.79R WCI  14
FREMONT        LGT SNOW  23  19  85 W17G24    29.75R VSB 1   WCI   9
HOLLAND        LGT SNOW  24  16  71 W18G25    29.81R WCI  10
GRAND RAPIDS   LGT SNOW  24  16  71 W25G33    29.76R WCI   8
IONIA          LGT SNOW  25  19  76 W22G30    29.73R WCI  11
KALAMAZOO      LGT SNOW  25  17  72 W17G23    29.80R WCI  12
LUDINGTON      LGT SNOW  24  18  77 W14G25    29.75R WCI  12
MARSHALL       LGT SNOW  26  20  79 W17G25    29.76R VSB 3/4 WCI  13
MOUNT PLEASANT PTSUNNY   28  17  63 W18G31    29.68R WCI  15
MUSKEGON       LGT SNOW  24  14  65 NW16G28   29.79R WCI  11
SOUTH HAVEN    LGT SNOW  25  19  75 W12G24    29.83R WCI  15
$$
MIZ016>042-252100-
NORTHERN LOWER MICHIGAN

CITY           SKY/WX    TMP DP  RH WIND       PRES   REMARKS
ALPENA         CLOUDY    28  19  69 W10G23    29.55R WCI  19
BEAVER ISLAND  LGT SNOW  24  18  78 W16G23    29.61R WCI  11
BELLAIRE       LGT SNOW  25  19  78 W10G18    29.65R WCI  15
CADILLAC       LGT SNOW  23  16  75 W13G20    29.63R WCI  11
CHARLEVOIX     LGT SNOW  25  22  90 W20G36    29.65R VSB 3/4 WCI  11
FRANKFORT      LGT SNOW  25  19  80 NW16G26   29.70R WCI  12
GAYLORD        LGT SNOW  24  17  74 W14G22    29.56R WCI  12
GRAYLING       LGT SNOW  25  20  83 W12G20    29.60R VSB 1   WCI  14
HARBOR SPRINGS LGT SNOW  25  19  77 W14G22    29.58R WCI  14
HOUGHTON LAKE  LGT SNOW  23  16  74 W17G28    29.62R WCI   9
MANISTEE       LGT SNOW  24  19  81 W22       29.72R WCI   9
OSCODA         CLOUDY    32  16  52 W18G29    29.57R WCI  20
PELLSTON       LGT SNOW  24  17  74 W20G31    29.57R VSB 1   WCI  10
ROGERS CITY    CLOUDY    27  20  77 W9        29.55R WCI  17
TRAVERSE CITY  LGT SNOW  25  18  74 W18       29.67R WCI  11
$$
MIZ007>008-015-252100-
EASTERN UPPER MICHIGAN

CITY           SKY/WX    TMP DP  RH WIND       PRES   REMARKS
KINROSS        LGT SNOW  21  16  81 NW17G31   29.50R WCI   7
MACKINAC ISLAN LGT SNOW  24  18  77 W20G33    29.54R WCI   9
NEWBERRY       SNOW      21  19  91 NW8G20    29.55R VSB 1/2 WCI  12
S. S. MARIE    LGT SNOW  21  14  74 W20G32    29.48R WCI   6
MUNISING         N/A     21  14  74 NW22G32   29.64R WCI   5
$$
MIZ004>006-011>014-085-252100-
CENTRAL UPPER MICHIGAN

CITY           SKY/WX    TMP DP  RH WIND       PRES   REMARKS
MANISTIQUE     LGT SNOW  21  17  83 NW16G23   29.63R WCI   7
ESCANABA       CLOUDY    26  14  60 W22G29    29.67R WCI  12
MENOMINEE      PTSUNNY   27  13  55 NW13G23   29.72R WCI  16
SAWYER-GWINN   PTSUNNY   18  10  73 NW18      29.63R WCI   2
$$
MIZ001>003-009>011-084-252100-
WESTERN UPPER MICHIGAN

CITY           SKY/WX    TMP DP  RH WIND       PRES   REMARKS
IRON MOUNTAIN  CLOUDY    21   9  59 NW16G31   29.68R WCI   7
HOUGHTON       LGT SNOW  20  12  71 W20G29    29.66R WCI   4
COPPER HARBOR    N/A     24  13  62 N22G33    29.64R WCI   9
IRONWOOD       MOSUNNY   21   9  59 W14       29.76R WCI   8
$$

ABBREVIATIONS USED IN REMARKS
   TC - TEMPERATURE IN CELSIUS
  WCI - WIND CHILL INDEX
   HX - HEAT INDEX
  VSB - VISIBILITY




USA.gov is the U.S. government's official web portal to all federal, state and local government web resources and services.